TimeEST,TemperatureF,Dew PointF,Humidity,Sea Level PressureIn,VisibilityMPH,Wind Direction,Wind SpeedMPH,Gust SpeedMPH,PrecipitationIn,Events,Conditions,WindDirDegrees,DateUTC
12:53 AM,39.0,28.0,65,30.67,10.0,North,4.6,-,N/A,,Overcast,360,2013-11-05 05:53:00
1:53 AM,41.0,28.9,62,30.67,10.0,North,4.6,-,N/A,,Overcast,10,2013-11-05 06:53:00
2:53 AM,42.1,28.0,58,30.68,10.0,NW,3.5,-,N/A,,Overcast,320,2013-11-05 07:53:00
3:53 AM,41.0,28.9,62,30.68,10.0,North,4.6,-,N/A,,Overcast,350,2013-11-05 08:53:00
4:53 AM,42.1,28.9,60,30.67,10.0,North,9.2,-,N/A,,Overcast,10,2013-11-05 09:53:00
5:53 AM,41.0,30.0,65,30.68,10.0,North,4.6,-,N/A,,Overcast,350,2013-11-05 10:53:00
6:53 AM,39.9,30.0,68,30.67,10.0,North,6.9,-,N/A,,Partly Cloudy,10,2013-11-05 11:53:00
7:53 AM,42.1,30.9,65,30.69,10.0,North,6.9,-,N/A,,Overcast,350,2013-11-05 12:53:00
8:53 AM,45.0,30.0,56,30.69,10.0,North,5.8,-,N/A,,Overcast,350,2013-11-05 13:53:00
9:53 AM,46.0,30.9,56,30.70,10.0,North,8.1,-,N/A,,Overcast,10,2013-11-05 14:53:00
10:53 AM,48.0,30.9,52,30.68,10.0,North,5.8,-,N/A,,Overcast,360,2013-11-05 15:53:00
11:53 AM,50.0,30.9,48,30.66,10.0,SE,8.1,-,N/A,,Overcast,130,2013-11-05 16:53:00
12:53 PM,48.0,32.0,54,30.64,10.0,East,4.6,-,N/A,,Scattered Clouds,80,2013-11-05 17:53:00
1:53 PM,46.9,32.0,56,30.63,10.0,SSE,4.6,-,N/A,,Partly Cloudy,150,2013-11-05 18:53:00
2:53 PM,48.0,33.1,56,30.61,10.0,East,6.9,-,N/A,,Partly Cloudy,90,2013-11-05 19:53:00
3:53 PM,46.9,32.0,56,30.60,10.0,South,3.5,-,N/A,,Clear,170,2013-11-05 20:53:00
4:53 PM,42.1,32.0,67,30.60,10.0,Calm,Calm,-,N/A,,Clear,0,2013-11-05 21:53:00
5:53 PM,35.1,28.0,76,30.59,10.0,Calm,Calm,-,N/A,,Clear,0,2013-11-05 22:53:00
6:53 PM,32.0,27.0,82,30.58,10.0,Calm,Calm,-,N/A,,Clear,0,2013-11-05 23:53:00
7:53 PM,32.0,28.0,85,30.58,10.0,Calm,Calm,-,N/A,,Clear,0,2013-11-06 00:53:00
8:53 PM,30.0,26.1,85,30.58,10.0,NW,3.5,-,N/A,,Clear,310,2013-11-06 01:53:00
9:53 PM,32.0,28.0,85,30.57,10.0,Calm,Calm,-,N/A,,Clear,0,2013-11-06 02:53:00
10:53 PM,34.0,30.0,85,30.54,10.0,Calm,Calm,-,N/A,,Clear,0,2013-11-06 03:53:00
11:53 PM,36.0,32.0,86,30.54,10.0,Calm,Calm,-,N/A,,Clear,0,2013-11-06 04:53:00